Terminal Aerodrome Forecast
Issued by NWS Pittsburgh, PA

Current Version | Previous Version | Text Only | Print | Product List | Glossary Off
Versions: 1 2 3 4 5 6 7 8 9 10 11 12 13 14 15 16 17 18 19 20 21 22 23 24 25

000
FTUS41 KPBZ 251144
TAFPIT
TAF
KPIT 251144Z 2512/2618 24005KT P6SM VCSH SCT060
     FM251800 24007KT P6SM VCTS BKN040CB
     FM260300 26003KT P6SM SCT250
     FM261000 30003KT 3SM BR SCT003
     FM261300 33004KT P6SM SCT010=

USA.gov is the U.S. government's official web portal to all federal, state and local government web resources and services.